Showing default

HULIANWANG DIGUI-06, 62328

Orbit data source: Space-Track

HULIANWANG DIGUI-06, 62328 is a payload satellite owned by Zhongguo Xingwang (CN) in LEO that was launched on Mon, 16 Dec 2024 UTC via a CHANG ZHENG 5B/YZ-2 launch vehicle from the Wenchang Satellite Launch Center (WSC). Payload-class satellites include a variety of spacecraft equipped with specific instruments for various scientific and technological missions. These include communications satellites like Starlink; space stations such as the ISS; scientific satellites like the Hubble; Earth observation satellites from companies like Planet Labs, Umbra, and HawkEye 360; GPS; miniature CubeSats for education and research; and military/defense satellites.

Loading next visibility...
Identifier
62328, 2024-240F
Orbit
LEO
Country
Flag of CNCN / PRC
Related business
Manufacturer
CAST?
Mission
Operational Civil Communications
Bus & Motor
XINGWANG CL, Unknown motor
Mass
~800 kg wet, ~800 kg dry
Launch date (UTC)
2024-12-16 (1 year ago)
Launch vehicle
CHANG ZHENG 5B/YZ-2
Launch site
Wenchang Satellite Launch Center (WSC)
Object type
Payload
Rocket body
Debris
Shape & HBR
Box + 2 Pan, 5.0 m
Radar Cross Section
5.935 m², Large (>1 m²)

Expand to show TLE details & history
Last TLE update: 6 hours ago

TLE from 6 hours ago
0 HULIANWANG DIGUI-06
1 62328U 24240F   26061.81519218  .00000048  00000-0  76947-4 0  9992
2 62328  86.5006  18.9890 0002013  89.9103 270.2261 13.24422688 58563
Epoch: 2026-03-02T19:33Z
TLE epoch observation values (Epoch: 2026-03-02T19:33:52.604Z)
Latitude
-0.00009°
Longitude
-75.08338°
Altitude
1,170.763 km
Speed
7.268 km/s
True Right ascension
01h 15m 57s
True Declination
0° 00' 00"
Sunlit
Object was in daylight at epoch
Visualization orbit readout
Latitude
Unknown
Longitude
Unknown
Altitude
Unknown
Speed
Unknown
Apparent Right ascension
Unknown
Apparent Declination
Unknown
Sunlit
N/A
Visualization observer readout
Local Sidereal Time
04:48:31
Azimuth
Unknown
Elevation
Unknown
Doppler factor
Unknown
Orbital elements
Apogee altitude
1,166.512 km
Perigee altitude
1,163.475 km
Semi-major axis
7,543.131 km
Eccentricity
0.0002
Inclination
86.5006°
RAAN
18.989°
Arg. of periapsis
89.9103°
True anomaly
270.20303°
Mean anomaly
270.2261°
Eccentric anomaly
270.21457°
Mean motion
3.31296 °/min
Orbital period
108.66 mins
BSTAR
0.000076947
Loading maneuver chart data...
Computing Atmospheric mass density...
Loading historical data...
Loading historical data...
Loading historical data...
Loading historical data...
Loading historical data...
Loading historical data...
Loading historical data...

Documentation

Showing up to 5 results
|